Terminal Aerodrome Forecast
Issued by NWS Charleston, SC

Home | Current Version | Previous Version | Text Only | Print | Product List | Glossary On
Versions: 1 2 3 4 5 6 7 8 9 10 11 12 13 14 15 16 17 18 19 20 21 22
000
FTUS42 KCHS 011134
TAFCHS
TAF
KCHS 011134Z 0112/0212 24010KT P6SM FEW200
     FM011600 25012G19KT P6SM FEW035 SCT060
     FM012300 24008KT P6SM FEW060 SCT250=

USA.gov is the U.S. government's official web portal to all federal, state and local government web resources and services.